Change the Weather History Date:

Monday, September 30, 2013

  Actual Average (KVPZ) Record (KVPZ)
Temperature  
Mean Temperature 58 °F 58 °F  
Max Temperature 73 °F 69 °F 86 °F (2002)
Min Temperature 42 °F 47 °F 37 °F (2003)
Degree Days  
Heating Degree Days 8 8  
Month to date heating degree days 114  
Since 1 July heating degree days 130  
Cooling Degree Days 0 1  
Month to date cooling degree days 66  
Year to date cooling degree days 702  
Growing Degree Days 8 (Base 50)    
Moisture  
Dew Point 50 °F    
Average Humidity 79    
Maximum Humidity 100    
Minimum Humidity 38    
Precipitation  
Precipitation 0.00 in 0.12 in 0.25 in (2006)
Month to date precipitation 3.21  
Year to date precipitation 28.75  
Sea Level Pressure  
Sea Level Pressure 29.98 in    
Wind  
Wind Speed 2 mph (South)    
Max Wind Speed 10 mph    
Max Gust Speed -    
Visibility 8 miles    
Events Fog    
T = Trace of Precipitation, MM = Missing Value Source: NWS Daily Summary

Daily Weather History Graph

Daily Weather History Graph

Search for Another Location

Airport or City:

Trip Planner

Search our weather history database for the weather conditions in past years. The results will help you decide how hot, cold, wet, or windy it might be!

Date:

Astronomy

Sep. 30, 2013 Rise Set
Actual Time 6:44 AM CDT 6:31 PM CDT
Civil Twilight 6:17 AM CDT 6:59 PM CDT
Nautical Twilight 5:45 AM CDT 7:31 PM CDT
Astronomical Twilight 5:13 AM CDT 8:03 PM CDT
Moon 2:19 AM CDT (9/30) 4:03 PM CDT (9/30)
Length of Visible Light 12h 42m
Length of Day
11h 47m
Waning Crescent, 19% of the Moon is Illuminated
Sep 30
Waning Crescent
Oct 4
New
Oct 11
First Quarter
Oct 18
Full
Oct 26
Last Quarter

Hourly Weather History & Observations

Time (CDT) Temp. Dew Point Humidity Pressure Visibility Wind Dir Wind Speed Gust Speed Precip Events Conditions
12:15 AM 50.0 °F 46.4 °F 87% 30.01 in 10.0 mi Calm Calm - N/A   Clear
12:35 AM 48.2 °F 46.4 °F 93% 30.01 in 7.0 mi Calm Calm - N/A   Clear
12:55 AM 46.4 °F 46.4 °F 100% 30.01 in 7.0 mi Calm Calm - N/A   Clear
1:15 AM 48.2 °F 46.4 °F 93% 30.01 in 7.0 mi Calm Calm - N/A   Clear
1:35 AM 46.4 °F 46.4 °F 100% 30.01 in 5.0 mi Calm Calm - N/A   Clear
1:55 AM 48.2 °F 48.2 °F 100% 30.01 in 4.0 mi Calm Calm - N/A   Clear
2:15 AM 46.4 °F 46.4 °F 100% 30.00 in 7.0 mi Calm Calm - N/A   Clear
2:35 AM 46.4 °F 46.4 °F 100% 29.99 in 5.0 mi Calm Calm - N/A   Clear
2:55 AM 44.6 °F 44.6 °F 100% 29.99 in 5.0 mi Calm Calm - N/A   Clear
3:15 AM 42.8 °F 42.8 °F 100% 29.99 in 10.0 mi Calm Calm - N/A   Clear
3:35 AM 44.6 °F 42.8 °F 93% 29.99 in 0.5 mi Calm Calm - N/A Fog Fog
3:55 AM 44.6 °F 44.6 °F 100% 30.00 in 1.0 mi Calm Calm - N/A   Mist
4:15 AM 44.6 °F 44.6 °F 100% 29.99 in 5.0 mi Calm Calm - N/A   Clear
4:35 AM 42.8 °F 42.8 °F 100% 29.99 in 7.0 mi Calm Calm - N/A   Clear
4:55 AM 44.6 °F 44.6 °F 100% 29.99 in 3.0 mi Calm Calm - N/A   Clear
5:15 AM 42.8 °F 42.8 °F 100% 30.00 in 4.0 mi Calm Calm - N/A   Clear
5:35 AM 42.8 °F 42.8 °F 100% 30.01 in 1.8 mi Calm Calm - N/A   Mist
5:55 AM 42.8 °F 42.8 °F 100% 30.01 in - Calm Calm - N/A   Unknown
6:15 AM 42.8 °F 42.8 °F 100% 30.02 in 1.2 mi Calm Calm - N/A   Mist
6:35 AM 42.8 °F 42.8 °F 100% 30.03 in 7.0 mi Calm Calm - N/A   Clear
6:55 AM 42.8 °F 42.8 °F 100% 30.03 in - Calm Calm - N/A   Unknown
7:15 AM 42.8 °F 42.8 °F 100% 30.03 in 2.5 mi Calm Calm - N/A   Clear
7:35 AM 44.6 °F 44.6 °F 100% 30.03 in 7.0 mi Calm Calm - N/A   Clear
7:55 AM 46.4 °F 46.4 °F 100% 30.03 in 4.0 mi Calm Calm - N/A   Clear
8:15 AM 50.0 °F 50.0 °F 100% 30.03 in 5.0 mi Calm Calm - N/A   Clear
8:35 AM 51.8 °F 51.8 °F 100% 30.02 in 7.0 mi SE 3.5 mph - N/A   Clear
8:55 AM 53.6 °F 53.6 °F 100% 30.03 in 10.0 mi Calm Calm - N/A   Clear
9:15 AM 55.4 °F 53.6 °F 94% 30.02 in 10.0 mi Calm Calm - N/A   Clear
9:35 AM 55.4 °F 53.6 °F 94% 30.01 in 10.0 mi SSE 3.5 mph - N/A   Clear
9:55 AM 55.4 °F 55.4 °F 100% 30.01 in 7.0 mi SSE 3.5 mph - N/A   Scattered Clouds
10:15 AM 59.0 °F 55.4 °F 88% 30.02 in 10.0 mi Calm Calm - N/A   Scattered Clouds
10:35 AM 60.8 °F 55.4 °F 82% 30.02 in 10.0 mi SSW 3.5 mph - N/A   Clear
10:55 AM 60.8 °F 55.4 °F 82% 30.02 in 10.0 mi South 6.9 mph - N/A   Clear
11:15 AM 62.6 °F 55.4 °F 77% 30.01 in 10.0 mi South 8.1 mph - N/A   Scattered Clouds
11:35 AM 60.8 °F 55.4 °F 82% 30.01 in 10.0 mi South 6.9 mph - N/A   Mostly Cloudy
11:55 AM 62.6 °F 55.4 °F 77% 30.01 in 10.0 mi SSW 6.9 mph - N/A   Scattered Clouds
12:15 PM 64.4 °F 55.4 °F 73% 30.00 in 10.0 mi South 9.2 mph - N/A   Clear
12:35 PM 64.4 °F 55.4 °F 73% 29.99 in 10.0 mi South 8.1 mph - N/A   Clear
12:55 PM 68.0 °F 55.4 °F 64% 29.99 in 10.0 mi South 8.1 mph - N/A   Clear
1:15 PM 68.0 °F 55.4 °F 64% 29.97 in 10.0 mi South 5.8 mph - N/A   Clear
1:35 PM 68.0 °F 55.4 °F 64% 29.96 in 10.0 mi South 9.2 mph - N/A   Clear
1:55 PM 69.8 °F 55.4 °F 60% 29.95 in 10.0 mi South 8.1 mph - N/A   Clear
2:15 PM 69.8 °F 55.4 °F 60% 29.95 in 10.0 mi SSE 9.2 mph - N/A   Clear
2:35 PM 71.6 °F 53.6 °F 53% 29.95 in 10.0 mi WSW 10.4 mph - N/A   Clear
2:55 PM 71.6 °F 51.8 °F 50% 29.95 in 10.0 mi SW 3.5 mph - N/A   Clear
3:15 PM 71.6 °F 51.8 °F 50% 29.94 in 10.0 mi South 9.2 mph - N/A   Clear
3:35 PM 73.4 °F 50.0 °F 44% 29.93 in 10.0 mi SSW 9.2 mph - N/A   Clear
3:55 PM 73.4 °F 48.2 °F 41% 29.92 in 10.0 mi SSW 9.2 mph - N/A   Clear
4:15 PM 73.4 °F 48.2 °F 41% 29.92 in 10.0 mi South 8.1 mph - N/A   Clear
4:35 PM 73.4 °F 48.2 °F 41% 29.92 in 10.0 mi SSW 10.4 mph - N/A   Clear
4:55 PM 73.4 °F 46.4 °F 38% 29.92 in 10.0 mi South 10.4 mph - N/A   Clear
5:15 PM 73.4 °F 46.4 °F 38% 29.92 in 10.0 mi SSW 8.1 mph - N/A   Clear
5:35 PM 73.4 °F 48.2 °F 41% 29.92 in 10.0 mi SSW 5.8 mph - N/A   Clear
5:55 PM 71.6 °F 48.2 °F 43% 29.93 in 10.0 mi SSW 4.6 mph - N/A   Clear
6:15 PM 69.8 °F 50.0 °F 49% 29.93 in 10.0 mi South 3.5 mph - N/A   Clear
6:35 PM 68.0 °F 50.0 °F 52% 29.93 in 10.0 mi South 3.5 mph - N/A   Clear
6:55 PM 64.4 °F 51.8 °F 64% 29.93 in 10.0 mi Calm Calm - N/A   Clear
7:15 PM 62.6 °F 51.8 °F 68% 29.93 in 10.0 mi SSE 3.5 mph - N/A   Clear
7:35 PM 60.8 °F 51.8 °F 72% 29.93 in 10.0 mi Calm Calm - N/A   Clear
7:55 PM 64.4 °F 51.8 °F 64% 29.94 in 10.0 mi SSE 3.5 mph - N/A   Clear
8:15 PM 62.6 °F 53.6 °F 72% 29.94 in 10.0 mi SSE 3.5 mph - N/A   Clear
8:35 PM 62.6 °F 53.6 °F 72% 29.94 in 10.0 mi SSE 3.5 mph - N/A   Clear
8:55 PM 60.8 °F 53.6 °F 77% 29.95 in 10.0 mi South 3.5 mph - N/A   Clear
9:15 PM 60.8 °F 55.4 °F 82% 29.94 in 10.0 mi SSE 5.8 mph - N/A   Clear
9:35 PM 60.8 °F 55.4 °F 82% 29.94 in 10.0 mi South 5.8 mph - N/A   Clear
9:55 PM 62.6 °F 55.4 °F 77% 29.95 in 10.0 mi South 6.9 mph - N/A   Clear
10:15 PM 60.8 °F 55.4 °F 82% 29.95 in 10.0 mi South 6.9 mph - N/A   Clear
10:35 PM 60.8 °F 55.4 °F 82% 29.95 in 10.0 mi South 4.6 mph - N/A   Clear
10:55 PM 60.8 °F 55.4 °F 82% 29.95 in 10.0 mi South 4.6 mph - N/A   Clear
11:15 PM 60.8 °F 55.4 °F 82% 29.95 in 10.0 mi South 4.6 mph - N/A   Clear
11:35 PM 60.8 °F 57.2 °F 88% 29.95 in 10.0 mi South 6.9 mph - N/A   Clear
11:55 PM 60.8 °F 57.2 °F 88% 29.96 in 10.0 mi South 5.8 mph - N/A   Clear